Location: Banksville Park
(38.5557°N, 75.1182°W)
Time: 03:01:54
(UTC+00:00)

Envisat - Pass Details

Date: 28 November 2020
Orbit: 764 x 766 km, 98.1° (Epoch: 16 January)

Event Time Altitude Azimuth Distance (km) Brightness Sun altitude
Rises 23:25:43 0° 212° (SSW) 3,219 6.9 -20.2°
Reaches altitude 10° 23:29:07 10° 237° (WSW) 2,299 6.5 -20.9°
Maximum altitude 23:31:49 14° 269° (W) 2,012 6.2 -21.4°
Drops below altitude 10° 23:34:31 10° 302° (WNW) 2,307 6.1 -21.9°
Sets 23:37:58 0° 326° (NW) 3,240 6.6 -22.6°
